Regional Weather Roundup
Issued by NWS Midland/Odessa, TX

Home | Current Version | Previous Version | Text Only | Print | Product List | Glossary On
Versions: 1 2 3 4 5 6 7 8 9 10 11 12 13 14 15 16 17 18 19 20 21 22 23 24 25 26 27 28 29 30 31 32 33 34 35 36 37 38 39 40 41 42 43 44 45 46 47 48 49 50
000
ASUS44 KMAF 272110
RWRMAF
MIDLAND AREA WEATHER ROUNDUP
NATIONAL WEATHER SERVICE MIDLAND TX
400 PM CDT THU JUL 27 2017

...IN SOUTHWEST TEXAS AND SOUTHEAST NEW MEXICO...

CITY           SKY/WX    TMP DP  RH WIND       PRES   REMARKS
ALPINE         PTSUNNY   87  56  34 S8        30.17F
ANDREWS        FAIR      97  52  22 SE12G21   30.04F
ARTESIA        SUNNY     95  57  28 E10G16    30.03F
BIG SPRING     MOSUNNY   98  54  22 SE7G20    30.03F
CARLSBAD       MOSUNNY   94  61  33 VRB3      30.00F
DRYDEN           N/A     95  61  32 SE17G25   29.98F
FORT STOCKTON  CLOUDY    96  57  27 SE15G22   30.00F
GUAD PASS      SUNNY     85  58  39 E23G32    30.19S
HOBBS          MOSUNNY   95  48  20 NE13G18   30.06F
MARFA          MOSUNNY   89  53  29 E14       30.15F
MIDLAND AIRPK  SUNNY     97  52  21 S10G17    30.02F
MIDLAND INTL   SUNNY     97  54  23 SE17      30.02F
ODESSA         SUNNY     97  52  21 SE15G23   30.03F
PECOS          SUNNY    101  53  20 E15       29.96F
PRESIDIO       MOCLDY    97  55  24 SE3       29.99F
SEMINOLE       SUNNY     96  51  22 SE8G17    30.05F
SNYDER         MOSUNNY   97  55  24 S10G17    30.02F
WINK           MOSUNNY  100  51  19 E15G22    29.98F
$$
...OTHER STATIONS IN TEXAS...

CITY           SKY/WX    TMP DP  RH WIND       PRES   REMARKS
ABILENE        SUNNY     97  58  27 SE10      29.98F
AMARILLO       CLOUDY    90  61  37 NW8       30.10F
AUSTIN         MOSUNNY  100  66  32 S13G20    29.96F HX 104
BROWNSVILLE    CLOUDY    92  73  53 SE18      29.98F HX 100
CORPUS CHRISTI MOSUNNY   95  69  42 SE16G23   29.98F HX 100
DALLAS FTW     CLOUDY    99  68  36 SW8       29.93F HX 104
DEL RIO        SUNNY     99  60  27 S14       29.93F
EL PASO        PTSUNNY   78  66  66 NW14      30.08F THUNDER
HOUSTON INT    MOSUNNY   97  70  41 S5        29.98F HX 103
LUBBOCK        CLOUDY    95  54  25 SE10G18   30.05F
SAN ANGELO     SUNNY    100  55  22 SW10      29.99F
SAN ANTONIO    MOSUNNY   97  65  34 SE15G21   29.99F
WACO           SUNNY     99  65  32 SE9       29.95F HX 102
WICHITA FALLS  NOT AVBL
$$
...OTHER LOCATIONS IN NEW MEXICO...

CITY           SKY/WX    TMP DP  RH WIND       PRES   REMARKS
ALAMOGORDO     MOSUNNY   75  59  57 NE16      30.12F
ALBUQUERQUE    MOSUNNY   84  55  36 SW9       30.17F
CANNON AFB     PTSUNNY   88  57  35 E6G20     30.14F
CLOVIS         SUNNY     88  60  38 SE7       30.14F
HOLLOMAN AFB   DRIZZLE   73  59  60 N12       30.11F
ROSWELL        SUNNY     95  55  26 NE8       30.05F
RUIDOSO        CLOUDY    79  54  41 SE10G17   30.33F
SANTA FE       MOSUNNY   87  53  31 SW10      30.21F
TRUTH OR CONSE FAIR      87  58  37 SE9       30.13F
TUCUMCARI      MOSUNNY   89  62  40 SE9       30.09F
$$



USA.gov is the U.S. government's official web portal to all federal, state and local government web resources and services.